Miscellaneous Local Product
Issued by NWS Hastings, NE

Home | Current Version | Previous Version | Graphics & Text | Print | Product List | Glossary On
Versions: 1 2 3 4 5 6 7 8 9 10 11 12 13 14 15 16 17 18 19 20 21 22 23 24 25 26 27 28 29 30 31 32 33 34 35 36 37 38 39 40 41 42 43 44 45 46 47 48 49 50
291
AXUS43 KGID 150802
MISGRI

GID CWA HOURLY WEATHER ROUNDUP
NATIONAL WEATHER SERVICE HASTINGS NE
300 AM CDT TUE AUG 15 2017

NOTE: "FAIR" INDICATES FEW OR NO CLOUDS BELOW 12,000 FEET WITH NO
SIGNIFICANT WEATHER AND/OR OBSTRUCTIONS TO VISIBILITY.

...SOUTH CENTRAL NEBRASKA...

CITY           SKY/WX    TMP DP  RH WIND       PRES   REMARKS
GRAND ISLAND   CLOUDY    67  64  90 SE7       29.82F
HASTINGS       CLOUDY    70  67  90 SE10      29.83F
KEARNEY        CLOUDY    66  65  96 E5        29.82F
ORD            MOCLDY    68  61  78 SE6       29.81F
YORK           PTCLDY    68  61  77 SE9       29.83F
AURORA         CLOUDY    65  64  94 SE7       29.83S
LEXINGTON      CLOUDY    69  67  92 E6        29.82F
HOLDREGE       CLOUDY    69  65  89 S5        29.81F
HEBRON         CLOUDY    70  68  93 CALM      29.82F

...NEBRASKA PANHANDLE...

CITY           SKY/WX    TMP DP  RH WIND       PRES   REMARKS
CHADRON        CLOUDY    65  58  78 CALM      29.84F
ALLIANCE       CLOUDY    64  61  90 CALM      29.90R
SCOTTSBLUFF    LGT RAIN  65  60  84 E5        29.90R
SIDNEY         LGT RAIN  64  62  93 N3        29.92R

...WESTERN AND NORTH CENTRAL NEBRASKA...

CITY           SKY/WX    TMP DP  RH WIND       PRES   REMARKS
VALENTINE      LGT RAIN  66  61  84 E7        29.86F
AINSWORTH      RAIN      64  63  97 CALM      29.89F
ONEILL         LGT RAIN  65  65 100 E7        29.85R
BROKEN BOW     CLOUDY    67  63  87 N9        29.87R
IMPERIAL       CLOUDY    65  59  81 SW6       29.84F
NORTH PLATTE   CLOUDY    69  67  93 NE7       29.85S
MCCOOK         CLOUDY    72  64  76 S6        29.81S

...EASTERN NEBRASKA...

CITY           SKY/WX    TMP DP  RH WIND       PRES   REMARKS
NORFOLK        TSTM      64  61  90 E12       29.85F
SO SIOUX CITY  CLOUDY    64  61  90 E7        29.86F
TEKAMAH        CLOUDY    65  61  87 E3        29.86F
COLUMBUS       CLOUDY    66  62  87 E7        29.85S
ALBION         CLOUDY    67  63  86 SE9       29.83F
OMAHA EPPLEY   CLOUDY    70  62  76 VRB3      29.86S
OFFUTT AFB     CLOUDY    68  62  81 NE7       29.85S
MILLARD        CLOUDY    72  63  74 E5        29.85S
LINCOLN        PTCLDY    71  65  81 E5        29.84S
NEBRASKA CITY  CLOUDY    69  69 100 NE5       29.85S
BEATRICE       CLEAR     72  68  89 SE6       29.83F
FALLS CITY     CLOUDY    68  68 100 SE3       29.83S FOG

...NORTHERN KANSAS...

CITY           SKY/WX    TMP DP  RH WIND       PRES   REMARKS
GOODLAND       CLOUDY    73  65  75 VRB5      29.86S
HILL CITY      CLOUDY    74  63  68 S3        29.82F
NORTON         SUNNY     73  57  56 S10       29.80F
PHILLIPSBURG   CLEAR     73  64  73 S6        29.80F
SMITH CENTER   PTCLDY    68  64  88 SE6       29.81F
HAYS           CLOUDY    71  65  81 SE5       29.83S
RUSSELL        PTCLDY    72  66  81 S8        29.82R
CONCORDIA      CLEAR     74  72  93 S12       29.82S
SALINA         CLEAR     76  71  85 S7        29.83S
TOPEKA         CLEAR     71  70  96 CALM      29.84R



USA.gov is the U.S. government's official web portal to all federal, state and local government web resources and services.